Location: New Town
(33.2710°N, 90.7534°W)
Time: 11:55:00
(UTC+00:00)

Explorer 11/Cluster Stage 4 - Pass Details

Date: 19 May 2021
Orbit: 467 x 1257 km, 28.8° (Epoch: 14 June)

Event Time Altitude Azimuth Distance (km) Brightness Sun altitude
Rises 06:15:37 0° 267° (W) 4,195 - -36.8°
Reaches altitude 10° 06:19:47 10° 250° (WSW) 3,192 - -36.7°
Maximum altitude 06:24:35 17° 213° (SSW) 2,602 - -36.6°
Drops below altitude 10° 06:29:06 10° 176° (S) 2,972 - -36.4°
Sets 06:32:49 0° 157° (SSE) 3,789 - -36.3°
